Flag for United Kingdom Weather past 2 weeks in Stornoway, Scotland, United Kingdom

Now
54 °F

Partly sunny.


Feels Like: 53 °F
Forecast: 56 / 62 °F
Wind: 3 mph from Northwest

Location: Stornoway

Current Time: Jul 31, 2014 at 6:50:51 AM

Latest Report: Jul 31, 2014 at 6:20 AM


Visibility: N/A

Pressure: 29.77 "Hg

Humidity: 88%

Dew point: 50 °F

Location of StornowayLocation

Historic Weather in Stornoway — Graph

°F

Stornoway temperature yesterday

Maximum temperature yesterday: 61 °F (at 1:20 PM)
Minimum temperature yesterday: 55 °F (at 1:20 AM)
Average temperature yesterday: 58 °F

Past Weeks' High & Low Weather Summary

 TemperatureHumidityPressure
High81 °F (Jul 24, 3:50 PM)94% (Jul 16, 10:50 AM)30.27 "Hg (Jul 16, 10:50 AM)
Low54 °F (Jul 16, 5:20 AM)51% (Jul 24, 3:50 PM)29.71 "Hg (Jul 20, 1:50 AM)
Average62 °F81%29.99 "Hg
* Reported Jul 16 5:20 AM — Jul 31 5:50 AM, Stornoway, Weather by CustomWeather, © 2014

Note: Actual official high and low records may vary slightly from our data, if they occured in-between our weather recording intervals... More about our weather records

Advertising

Stornoway weather history for previous 24 hours

 ConditionsComfort  
Time TempWeatherWind HumidityBarometerVisibility
5:50 AM
Jul 31
N/APassing clouds.2 mphN/A29.77 "HgN/A
5:20 AMN/AOvercast.3 mphN/A29.77 "HgN/A
4:50 AMN/APassing clouds.3 mphN/A29.80 "HgN/A
4:20 AMN/APassing clouds.2 mphN/A29.80 "HgN/A
3:50 AMN/APartly cloudy.No windN/A29.80 "HgN/A
3:20 AMN/APartly cloudy.2 mphN/A29.80 "HgN/A
2:50 AMN/APartly cloudy.2 mphN/A29.80 "HgN/A
2:20 AMN/ALow clouds.3 mphN/A29.80 "HgN/A
1:50 AMN/APassing clouds.3 mphN/A29.80 "HgN/A
1:20 AMN/APassing clouds.5 mphN/A29.80 "HgN/A
12:50 AMN/APassing clouds.6 mphN/A29.80 "Hg4 mi
12:20 AMN/AMostly cloudy.7 mphN/A29.80 "HgN/A
11:50 PM
Jul 30
N/APassing clouds.10 mphN/A29.80 "HgN/A
11:20 PMN/APartly cloudy.7 mphN/A29.80 "HgN/A
10:50 PMN/APassing clouds.9 mphN/A29.80 "HgN/A
10:20 PMN/AScattered clouds.7 mphN/A29.80 "Hg3 mi
9:50 PMN/APartly sunny.9 mphN/A29.80 "HgN/A
9:20 PMN/AMore clouds than sun.10 mphN/A29.80 "HgN/A
8:50 PMN/APartly sunny.10 mphN/A29.80 "HgN/A
8:20 PM61 °FScattered clouds.8 mph83%29.80 "HgN/A
7:50 PM61 °FScattered showers. Scattered clouds.13 mph83%29.77 "HgN/A
7:20 PM61 °FSprinkles. Broken clouds.16 mph83%29.77 "HgN/A
6:50 PM61 °FPartly sunny.16 mph83%29.77 "HgN/A
6:20 PM61 °FPartly sunny.17 mph83%29.77 "HgN/A
5:50 PM61 °FScattered clouds.18 mph83%29.77 "HgN/A
5:20 PM61 °FScattered clouds.18 mph83%29.77 "HgN/A
4:50 PM61 °FScattered clouds.18 mph83%29.77 "HgN/A
4:20 PM59 °FBroken clouds.21 mph88%29.74 "HgN/A
3:50 PM59 °FBroken clouds.20 mph88%29.74 "HgN/A
3:20 PM59 °FDrizzle. Broken clouds.25 mph88%29.74 "HgN/A
2:50 PM59 °FBroken clouds.18 mph88%29.74 "HgN/A
2:20 PM59 °FDrizzle. Broken clouds.21 mph88%29.74 "HgN/A
1:50 PM59 °FSprinkles. Broken clouds.22 mph77%29.74 "HgN/A
1:20 PM61 °FBroken clouds.22 mph77%29.74 "HgN/A
12:50 PM59 °FBroken clouds.20 mph88%29.74 "HgN/A
12:20 PM59 °FDrizzle. Broken clouds.21 mph77%29.74 "HgN/A
11:50 AM59 °FDrizzle. Broken clouds.23 mph82%29.74 "HgN/A
11:20 AM59 °FScattered showers. Broken clouds.20 mph77%29.74 "HgN/A
10:50 AM55 °FScattered showers. Broken clouds.20 mph88%29.74 "HgN/A
10:20 AM55 °FDrizzle. Broken clouds.18 mph88%29.74 "HgN/A
9:50 AM55 °FBroken clouds.17 mph88%29.71 "HgN/A
9:20 AM55 °FBroken clouds.17 mph88%29.71 "HgN/A
8:50 AM55 °FBroken clouds.15 mph88%29.71 "HgN/A
8:20 AM55 °FBroken clouds.17 mph88%29.71 "HgN/A
7:50 AM55 °FBroken clouds.15 mph88%29.71 "HgN/A
7:20 AM55 °FDrizzle. Broken clouds.17 mph88%29.71 "HgN/A
6:50 AM57 °FPartly sunny.15 mph77%29.71 "HgN/A
6:20 AM55 °FPartly sunny.14 mph82%29.71 "HgN/A
Weather by CustomWeather, © 2014

See weather overviewHow to use our weather pages